User: anonymous   Login
Location: Paderno d�Adda
(45.6667°N, 9.4333°E)
Time: 03:09:53
(UTC+00:00)
Language:

Lacrosse 5 rocket - Orbit

View from above orbital plane
View from above orbital plane
View from above satellite
View from above satellite

Ground track
Ground track

The orbit data is extracted from the following two-line orbital elements,

1 28647U 05016B   20335.55963655 +.00000933 +00000-0 +70591-4 0  9997
2 28647 056.9968 284.8944 0129711 083.4521 278.1264 15.06149376084986
Epoch (UTC): 30 November 2020 13:25:52
Eccentricity: 0.0129711
inclination: 56.9968°
perigee height: 458 km
apogee height: 638 km
right ascension of ascending node: 284.8944°
argument of perigee: 83.4521°
revolutions per day: 15.06149376
mean anomaly at epoch: 278.1264°
orbit number at epoch: 8498

The dashed part of the orbit path shows where the satellite is in the earth's shadow,  

DLR